User: anonymous   Login
Location: Go�ngahuizen
(53.0821°N, 5.8849°E)
Time: 14:03:22
(UTC+00:00)
Language:

STARLINK-1224 - Orbit

View from above orbital plane
View from above orbital plane
View from above satellite
View from above satellite

Ground track
Ground track

The orbit data is extracted from the following two-line orbital elements,

1 45186U 20012J   20191.91670139 -.00030093 +00000-0 -20545-2 0  9993
2 45186 052.9988 333.7021 0001002 106.6640 200.1314 15.05587974001803
Epoch (UTC): 09 July 2020 22:00:03
Eccentricity: 0.0001002
inclination: 52.9988°
perigee height: 549 km
apogee height: 550 km
right ascension of ascending node: 333.7021°
argument of perigee: 106.6640°
revolutions per day: 15.05587974
mean anomaly at epoch: 200.1314°
orbit number at epoch: 180

The dashed part of the orbit path shows where the satellite is in the earth's shadow,  

DLR